Tracking 19846 objects as of 18-Sep-2019
HD Live streaming from Space Station
objects crossing your sky now

COSMOS 842

Track COSMOS 842 now!
10-day predictions
COSMOS 842 is classified as:


NORAD ID: 9025
Int'l Code: 1976-070A
Perigee: 972.7 km
Apogee: 1,011.7 km
Inclination: 83.0 °
Period: 104.8 minutes
Semi major axis: 7363 km
RCS: 2.9713 m2 (large)
Launch date: July 21, 1976
Source: Commonwealth of Independent States (former USSR) (CIS)
Launch site: PLESETSK MISSILE AND SPACE COMPLEX (PKMTR)
aabbcc
Your satellite tracking list
Your tracking list is empty




NASA's NSSDC Master Catalog

Two Line Element Set (TLE):
1  9025U 76070A   19261.08945516  .00000016  00000-0  72315-6 0  9994
2  9025  82.9848  67.4035 0026511 296.8013 164.1638 13.74053527163923
Source of the keplerian elements: AFSPC